Weather History for PADU - April, 2013

Change the Weather History Date:

Friday, April 5, 2013

  Actual Average Record
Temperature  
Mean Temperature 38 °F -  
Max Temperature 42 °F 38 °F 55 °F (2009)
Min Temperature 35 °F 30 °F 22 °F (1986)
Degree Days  
Heating Degree Days 27    
Moisture  
Dew Point 33 °F    
Average Humidity 80    
Maximum Humidity 93    
Minimum Humidity 70    
Precipitation  
Precipitation 0.19 in - - ()
Sea Level Pressure  
Sea Level Pressure 29.47 in    
Wind  
Wind Speed 11 mph (ENE)    
Max Wind Speed 23 mph    
Max Gust Speed 30 mph    
Visibility 10 miles    
Events Rain , Snow    
Averages and records for this station are not official NWS values.
T = Trace of Precipitation, MM = Missing Value Source: NWS Daily Summary

Daily Weather History Graph

Daily Weather History Graph

Search for Another Location

Airport or City:

Trip Planner

Search our weather history database for the weather conditions in past years. The results will help you decide how hot, cold, wet, or windy it might be!

Date:

Astronomy

Apr. 05, 2013 Rise Set
Actual Time 8:28 AM AKDT 9:50 PM AKDT
Civil Twilight 7:51 AM AKDT 10:27 PM AKDT
Nautical Twilight 7:07 AM AKDT 11:11 PM AKDT
Astronomical Twilight 6:17 AM AKDT 12:01 AM AKDT
Moon 6:22 AM AKDT (4/5) 4:52 PM AKDT (4/5)
Length of Visible Light 14h 35m
Length of Day
13h 22m
Waning Crescent, 22% of the Moon is Illuminated
Apr 5
Waning Crescent
Apr 10
New
Apr 18
First Quarter
Apr 25
Full
May 2
Last Quarter

Hourly Weather History & Observations

Time (AKDT) Temp. Windchill Dew Point Humidity Pressure Visibility Wind Dir Wind Speed Gust Speed Precip Events Conditions
12:16 AM 37.4 °F 26.6 °F 33.8 °F 87% 29.42 in 10.0 mi East 21.9 mph 29.9 mph 0.01 in Rain , Snow Light Rain
12:56 AM 37.0 °F 25.9 °F 34.0 °F 89% 29.45 in 9.0 mi East 23.0 mph 28.8 mph 0.04 in Rain , Snow Light Rain
1:11 AM 37.4 °F 26.6 °F 33.8 °F 87% 29.43 in 10.0 mi East 21.9 mph 26.5 mph 0.02 in Rain , Snow Light Rain
1:56 AM 37.0 °F 28.5 °F 34.0 °F 89% 29.45 in 10.0 mi East 13.8 mph 23.0 mph 0.05 in Rain , Snow Light Rain
2:56 AM 37.0 °F 28.5 °F 34.0 °F 89% 29.45 in 8.0 mi East 13.8 mph - 0.03 in Rain , Snow Light Rain
3:15 AM 37.4 °F 30.3 °F 33.8 °F 87% 29.44 in 10.0 mi ENE 10.4 mph - 0.01 in Rain , Snow Light Rain
3:56 AM 36.0 °F 26.7 °F 33.1 °F 89% 29.46 in 9.0 mi East 15.0 mph - 0.03 in Rain , Snow Light Rain
4:56 AM 35.1 °F - 33.1 °F 92% 29.46 in 10.0 mi Calm Calm - 0.03 in Rain , Snow Light Rain
5:56 AM 36.0 °F - 33.1 °F 89% 29.46 in 10.0 mi Calm Calm - 0.01 in Rain , Snow Light Rain
6:10 AM 35.6 °F 30.7 °F 33.8 °F 93% 29.44 in 10.0 mi Variable 5.8 mph - 0.00 in Rain , Snow Light Rain
6:25 AM 37.4 °F - 33.8 °F 87% 29.44 in 10.0 mi Calm Calm - 0.00 in Rain , Snow Light Rain
6:56 AM 37.9 °F 34.4 °F 32.0 °F 79% 29.45 in 10.0 mi Variable 4.6 mph - 0.00 in   Overcast
7:44 AM 37.4 °F 29.3 °F 32.0 °F 81% 29.43 in 10.0 mi East 12.7 mph - N/A   Overcast
7:56 AM 37.9 °F 30.0 °F 32.0 °F 79% 29.45 in 10.0 mi East 12.7 mph - N/A   Overcast
8:56 AM 37.9 °F 33.5 °F 30.0 °F 73% 29.45 in 10.0 mi East 5.8 mph - N/A   Mostly Cloudy
9:56 AM 39.0 °F 36.8 °F 30.9 °F 73% 29.45 in 10.0 mi East 3.5 mph - N/A   Mostly Cloudy
10:08 AM 39.2 °F - 32.0 °F 75% 29.43 in 10.0 mi Calm Calm - N/A   Overcast
10:56 AM 39.9 °F 32.9 °F 32.0 °F 73% 29.46 in 10.0 mi East 11.5 mph - N/A   Overcast
11:56 AM 39.9 °F 35.8 °F 30.9 °F 70% 29.47 in 10.0 mi East 5.8 mph - N/A   Mostly Cloudy
12:48 PM 41.0 °F 37.1 °F 33.8 °F 76% 29.46 in 10.0 mi ENE 5.8 mph - 0.00 in   Mostly Cloudy
12:56 PM 41.0 °F 38.0 °F 32.0 °F 70% 29.48 in 10.0 mi ENE 4.6 mph - 0.00 in   Mostly Cloudy
1:56 PM 41.0 °F 39.0 °F 32.0 °F 70% 29.48 in 10.0 mi Variable 3.5 mph - N/A   Overcast
2:56 PM 39.9 °F 36.7 °F 33.1 °F 77% 29.48 in 10.0 mi NE 4.6 mph - 0.00 in   Overcast
3:56 PM 39.9 °F 37.8 °F 32.0 °F 73% 29.48 in 10.0 mi Variable 3.5 mph - N/A   Overcast
4:56 PM 39.9 °F 35.8 °F 32.0 °F 73% 29.48 in 10.0 mi Variable 5.8 mph - N/A   Overcast
5:56 PM 39.9 °F 35.1 °F 33.1 °F 77% 29.48 in 10.0 mi North 6.9 mph - 0.00 in   Overcast
6:56 PM 39.0 °F 32.8 °F 33.1 °F 79% 29.49 in 10.0 mi North 9.2 mph - N/A   Overcast
7:56 PM 39.0 °F 35.7 °F 32.0 °F 76% 29.49 in 10.0 mi NNE 4.6 mph - N/A   Overcast
8:23 PM 39.2 °F - 32.0 °F 75% 29.48 in 10.0 mi Calm Calm - N/A   Overcast
8:56 PM 37.9 °F 32.7 °F 33.1 °F 83% 29.51 in 10.0 mi East 6.9 mph - N/A   Overcast
9:56 PM 37.9 °F 31.5 °F 32.0 °F 79% 29.52 in 10.0 mi NE 9.2 mph - N/A   Overcast
10:46 PM 37.4 °F 30.3 °F 32.0 °F 81% 29.51 in 10.0 mi NE 10.4 mph - 0.00 in   Overcast
10:56 PM 37.0 °F 29.8 °F 32.0 °F 82% 29.53 in 10.0 mi NNE 10.4 mph - 0.00 in   Overcast
11:56 PM 37.9 °F 33.5 °F 33.1 °F 83% 29.54 in 10.0 mi NE 5.8 mph - 0.00 in   Overcast